【最新版】海外通販「GearBest」超オトクな割引クーポン情報まとめ!

      2017/02/05  

gearbest-3

GearBestの超お得な割引クーポンコードまとめ!

日本で買うより安いのに「クーポンコードを入力するだけ」でより安くなるのでお得ですよ。

クーポンコードは随時更新するので要チェック

クーポンの使い方

カート画面で「販売促進コード」に入力して「適用」を押すだけ。

gomaruyon2016_00067-2

SPONSORED LINK


クーポンコード一覧

最新2017年2月クーポンコード

開始時間
(日本時間)
商品名クーポンコード割引後(掲載時)限定数(時間)
2017/2/15XING Heart Rate Monitorフラッシュセール1826円30
2017/2/15Ganzo G727M-W1 Axis Lock Pocket Knife727MGB1449円3月1日
2017/2/15Hoverboard Kart Seat AttachmentHBKSGB6737円3月1日
2017/2/15Xiaomi Mi5sMI5SXGB32319円96
2017/2/15MinSu TR2015 Robotic Vacuum CleanerMISUTR14846円100
2017/2/15AODMA ST - 807A Portable Ozone SterilizerAODMA2967円40
2017/2/13OnePlus 3T OPTGBS51277円100
2017/2/13 XiaoMi Mi5 国際版XIMIS29692円100
2017/2/13Xiaomi Redmi Note 4 4G Phablet - 64GB ROM GOLDENREDNO22269円100
2017/2/13Xiaomi Redmi 4 4G Smartphone - INTERNATIONAL EDITION MIUI 8 GOLDEN XIREDMI18843円500
2017/2/11Hawkeye Firefly 7S 2160P WiFi FPV Action CameraGBFirefly7536円50
2017/2/11Xiaomi Redmi Pro 32GB 4G PhabletRPXM21698円100
2017/2/11Lenovo ZUK Z2 64GB ROM 4G4GXIMI21698円300
2017/2/10Xiaomi Mi5s Mi5GSB33118円150
2017/2/9Xiaomi Mi Max27408円40
2017/2/9MEIZU M3S12561円98
2017/2/9UMI Plus EUMIES25124円200
2017/2/9Jumper EZBOOK 3 NotebookEZB3IT28550円50
2017/2/9HIGOLE GOLE360 360 Degree Panorama VR Action Camera GOLE36011419円3月9日
2017/2/8JP MTP - II Portable 58MM Bluetooth Thermal PrinterJPMTP3768円100
2017/2/8YUNDOO Y8 TV BoxGBYDY814846円100
2017/2/7Teclast Tbook 16 PowerPowerGBB37687円50
2017/2/7GPD WIN GamePadGPDGB37687円50
2017/2/7Ifive Mini 4SIfiveGB14846円30
2017/2/7Xiaomi Mi Note 2 NoteSXM74232円80
2017/2/7Huawei Honor 8 HuaweiS39971円150
2017/2/6CHUWI Hi10 ProHi10pcc19414円150
2017/2/6Chuwi Hi12 hi12pcc239.99ドル100
2017/2/6VOYO VBOOK V3 v3apollo39742円30
2017/2/6Chuwi Hi8hi8pc9135円100
2017/2/6Xiaomi Redmi 4XMRGB13703円100
2017/2/6Xiaomi Redmi 3S XRSGB14846円100
2017/2/4Teclast Tbook 11book11PC18272円150
2017/2/4Onda V80 PlusV80PC9935円100
2017/2/4CHUWI LapBooklaptop1122269円50
2017/2/4Jumper Ezbook 2ezbookpc 20099円100
2017/2/4Lenovo TAB 2 TAB2pc10963円30
2017/2/4Lenovo TAB 2 TAB2pcc10963円30
2017/2/4ZTE AXON 745681円25
2017/2/4Xiaomi Mi Max27408円103
2017/2/4Ulefone Power15988円33
2017/2/4Original YI II International Version WiFi 4K Sports Action Camera 22840円299
2017/2/4Elephone S7 4G Phablet23982円100
2017/2/3XiaoMi Mi Pad 2 16GB16GBPC19185円50
2017/2/3Cube iwork1xiwork1xPC 19414円50
2017/2/3CHUWI HI10 PLUS PLUSPC20556円50
2017/2/3CHUWI LapBook22840円100
2017/2/3Onda oBook10 Pro 25124円100
2017/2/3Lenovo PHAB14119円100
2017/2/3Xiaomi Mi5s Plus XXMP5S48764円34
2017/2/3Vernee Apollo Lite 20556円200
2017/2/3DOOGEE X5 MAX Pro 9820円88
2017/2/3Xiaomi Smart 1080P WiFi IP Camera Official VersionGBXFZSB2740円500
2017/2/2UMI Super 4G Phablet UMISUPER418843円100
2017/2/2Xiaomi Redmi Pro 4G Phablet 64GB ROMXMPRO21584円30
2017/2/2Lenovo ZUK Z2 64GB ROM 4G SmartphoneZUKS19756円90
2017/2/2XiaoMi Mi Pad 2 - WINDOWS 10 CHAMPAGNEMiPad2126266円80

2017年1月クーポンコード

開始時間
(日本時間)
商品名クーポンコード割引後(掲載時)限定数(時間)
2017/1/4ILIFE V7S Pro Smart Robotic Vacuum Cleaner - PINK ILIFEV7SPRO186.99ドル
2017/1/25CHUWI Hi10 Pro 2 in 1 Ultrabook Tablet PC with Keyboard 201.99ドル150
2017/1/25Chuwi Hi10 Ultrabook Tablet PC 18272円150
2017/1/25PPTV 7 4G Phablet 12561円200
2017/1/25Elephone S7 26266円300
2017/1/24ASUS ZenFone 2 ( ZE551ML ) 4G Phablet 15988円500
2017/1/24Vernee Apollo 4G Phablet 269.99ドル300
2017/1/24XiaoMi Mi Pad 2 16GB ROMMiPad2417929円100
2017/1/24Original Xiaomi Philips Eyecare Smart Lamp 2 XMPE2 5823円250
2017/1/23Teclast Tbook 10 S 2 in 1 Tablet PC18843円80
2017/1/23GPD WIN GamePad Tablet PCGBTPC35630円100
2017/1/23XiaoMi Mi Pad 2 16GB ROMMiPad2417929円100
2017/1/23OnePlus 3T51391円400
2017/1/23OUKITEL U1314846円400
2017/1/23ILIFE V5 Pro Intelligent Robotic Vacuum CleanerV5SMT13818円100
2017/1/23ILIFE A4 Smart Robotic Vacuum CleanerIlifeA4MT15302円100
2017/1/23Alfawise B3000 Smart Robotic Vacuum CleanerAlfawiseB14503円150
2017/1/23Cop Rose Smart Robot Window CleanerCopRose18157円50
2017/1/23Original Xiaomi Mi Robot VacuumMIROBOT38372円50
2017/1/17Teclast Tbook 16 Power Tablet PCTEC16DE34433円30
2017/1/17CHUWI LapBook Windows 10 LaptopCHULAPIT21128円80
2017/1/17CHUWI HI10 PLUS Tablet PCGBPC-chuwi23639円100
2017/1/17Yeelight Smart LED Ceiling LightCeilingGB9935円100
2017/1/17Xiaomi 5 in 1 Smart Home Security Kit WPFR6623円250
2017/1/17Original Xiaomi Mi WiFi 300M Amplifier 2 MIAMPIT913円100
2017/1/13Xiaomi Mi Note 2 Global Version 4G Phablet78800円29
2017/1/13Umi PlusGBUmiPlus19414円300
2017/1/13Lenovo ZUK Z2 64GB ROMZUK2WJP19871円40
2017/1/13OnePlus 3T 4G Phabletoneplusnh 48308円30
2017/1/13Letv Leeco Le 2 X527LETVX527JP19642円30
2017/1/13Original Xiaomi Mi WiFi 300M Amplifier 2 - CHINESE VERSION WHITEmiwifi21027円500
2017/1/11GPD WIN China倉庫GPDWIN0139971円100
2017/1/11Xiaomi Redmi 4 HK倉庫XIAMIG16673円500
2017/1/11Xiaomi Redmi 4 HK倉庫REMI413703円500
2017/1/11MEIZU M3S HK倉庫M3SGB14846円200
2017/1/11OnePlus 3 4G Smartphone China倉庫OP4G47280円100
2017/1/11Excelvan F1 Floating Music Player China倉庫FFMP14846円100
2017/1/11Onda OBook 20 Plus Tablet PC China倉庫17130円100
2017/1/7Teclast Tbook 10 S 2 in 1 Tablet PCTbook10S174.99ドル50
2017/1/7 Elephone S7 EPSGB211.99ドル200
2017/1/7XiaoMi Mi4 Mi42GB4G107.99ドル
2017/1/7FIIL DIVA Bluetooth 4.1 HiFi Active Noise-canceling HeadphonesLHWF159.00ドル
2017/1/7FIIL DIVA Pro Bluetooth 4.1 HiFi Music Headphones - BLACKLHWF259.00ドル
2017/1/5Original Xiaomi Mi Robot VacuumXIAOMIVAC335.99ドル2017/1/31
2017/1/5HIZERO Multifunctional Bionic Floor CleanerHIZERO359.99ドル2017/1/31
2017/1/5Xiaomi Air 13 LaptopMiair1304739.99ドル100
2017/1/5Teclast Tbook 16 PowerPower04329.99ドル100
2017/1/5Bluetooth Laser Projection Virtual Keyboard with LCD Display - BLACKLCDGB31.99ドル
2017/1/4ZTE AXON 7 4G Phablet - GRAYZteAJP397.99ドル50
2017/1/4DIY Raspberry Pi Model 3 B Motherboard - ENGLISH VERSION GREENModelJP334.99ドル30
2017/1/4Xiaomi Redmi 4 金色XIAOMI4GS144.99ドル300
2017/1/4Xiaomi Redmi 4 銀色REMI145.29ドル500
2017/1/4 Xiaomi Redmi Note 4 64GB銀色フラッシュセール169.99ドル200
2017/1/4 Xiaomi Redmi Note 4 64GB金色フラッシュセール169.99ドル200
2017/1/4UMi Z 4G Phablet - GRAYフラッシュセール219.99ドル
2017/1/4Xiaomi Redmi Note 4 4G PhabletXIMI4G163.99ドル300
2017/1/4Teclast X80 Power Tablet PC - GOLDENX80Powersy89.99ドル100
2017/1/4PIMAX 4K UHD Virtual Reality 3D PC Headset - WITH EARPHONES BLACK LHPIMAX359ドル

12月クーポンコード

開始時間
(日本時間)
商品名クーポンコード割引後(掲載時)限定数(時間)
2016/12/1来た!xiaomi MAX 国際版クーポンMImaxJP19737円50
2016/12/1LeTV Leeco Le Max 2 4G PhabletCHLETV199.99ドル500
2016/12/1Xiaomi Mi5s Plus 4G PhabletCHMI5S399.99ドル500
2016/12/1XIAOMI Redmi Note 3 Pro 16GB 4G PhabletREMIN127.99ドル500
2016/12/1Xiaomi Redmi 4 4G SmartphoneREMI145.99ドル500
2016/12/1OnePlus 3T 4G PhabletOnePlus3T471.99ドル50
2016/12/10UMI Super 4G PhabletUMISB169.69ドル
2016/12/10Vernee Mars 4G PhabletVERNEEB209.99ドル
2016/12/10Xiaomi Air 13 Laptop - SILVERAirXIAOMI(HK倉庫のみ)799.99ドル500
2016/12/12Martian A8 256GB SSD NotebookMartiani7585.99 ドル
2016/12/13Xiaomi Mi5s 4G SmartphoneMi5sGG301.99ドル
2016/12/13ASUS ZenFone 2 ( ZE551ML ) ZE551M126.99ドル
2016/12/13QCONG MetalQCONG9349円
2016/12/13XiaoMi Mi5 金Mi5GS249.99ドル
2016/12/13Teclast Tbook 16Tbook16Pro19010円
2016/12/13Teclast TBook 12Tbook12Pro21919円
2016/12/15OnePlus 3T OneP3T 454.99ドル100
2016/12/15Xiaomi Redmi 4MPR4G144.99 ドル100
2016/12/15XIAOMI Redmi Note 3 ProXIAOMIRN127.99ドル 500
2016/12/15Xiaomi Redmi Note 4GBNRG167.99 ドル500
2016/12/15Elephone S7ELES7199.99ドル200
2016/12/15Elephone S7 Helio X25 ブルーS74GELE249.99ドル200
2016/12/15Elephone S7 Helio X25 ブラックElephoneS7259.99ドル200
2016/12/15 MEIZU M3S 香港倉庫M3SMZ132.99ドル200
2016/12/19OnePlus 3TONEP3TS439.99ドル100
2016/12/19XIAOMI REDMI Note 3 32GBXIAOMIN3139.99ドル500
2016/12/19Xiaomi Redmi 3SRedmiXM3S129.99ドル500
2016/12/19CHUWI HiBook Pro 184.99ドル無制限
2016/12/19CHUWI LapBook185.99ドル無制限
2016/12/19Onda V80 Plus79.99ドル無制限
2016/12/20Xiaomi Air 13 LaptopGB13LP739.99ドル無制限
2016/12/20Xiaomi Air 12 Laptop GB12LPC499.99ドル無制限
2016/12/20Xiaomi Redmi 4 銀色REMI145.99ドル500
2016/12/20Xiaomi Redmi 4 灰色4GXM148.99ドル500
2016/12/20Elephone S7 x25 ブルーS7GB229.99ドル300
2016/12/20Elephone S7 x25ブラックS74GB235.99ドル100
2016/12/20Elephone S7 32GBブルーELES7199.99ドル200
2016/12/20XiaoMi Mi4 国際版Mi4XMG119.99ドル無制限
2016/12/21Xiaomi Redmi 3SXIAOMI3S133.99ドル500
2016/12/21Xiaomi Redmi 4 3GB RAM 32GB ROM ゴールドXIAOMI4GS144.99ドル300
2016/12/21Xiaomi Redmi 4 3GB RAM 32GB ROM シルバーREMI144.99ドル500
2016/12/21Xiaomi Mi5sMi5sGG299.99ドル500
2016/12/21XiaoMi Mi5 32GB白色MI54GB222.99ドル500
2016/12/21OnePlus 3TONEP3TS439.99ドル200
2016/12/21Xiaomi Redmi 3S 16GB ROM129.99ドル無制限
2016/12/21UGEE HK1560 Drawing DisplayUGEEGB319.99ドル無制限
2016/12/23Xiaomi Redmi 3S 国際版XRBTGB$122.99500
2016/12/23XiaoMi Mi5 ROTHQ$399.99300
2016/12/23XiaoMi Redmi 3 Pro 3GB RAM 32GB ROMJCWKH$142.99300
2016/12/23Xiaomi Redmi Pro 32GBUTOYES$164.99無制限
2016/12/23LeTV Leeco Le 2VYLDFS$178.99無制限
2016/12/23XIAOMI REDMI Note 3 16GBEFEQF$125.99無制限
2016/12/23Xiaomi Redmi Note 4 MIUI 7$144.99無制限
2016/12/23TCL 3N M2URRKKE$96.99無制限
2016/12/23Original UMI Touch Full Body PU Leather Flip CoverQYILG$76.99無制限
2016/12/23Timmy M13 Pro 3G SmartphoneQBHZG$48.99無制限
2016/12/23NO.1 X1 3G SmartphoneQKDUG$92.99無制限
2016/12/23THL T7 4G 5.5 inchVKRS$98.99無制限
2016/12/23Xiaomi Redmi Note 4 MIUI 7 4G Phablet - CHINESE AND ENGLISH VERSIONNFHC$117.99無制限
2016/12/23IQI I2 3G Smartwatch PhoneBWMLG$59.99無制限
現在当ウェブサイトGomaruyon.comで無料プレゼント還元キャンペーン中(`・ω・´)

この記事が気に入ったら
いいね!しよう

最新情報をお届けします

Twitterでgomaruyon.comの最新情報GET!!

関連記事

 - GearBest, 海外通販



  関連記事